GFSFLT2_850_spd_000.txt.gz
Wind_Speed
43 44 47 42 40 38 39 36 35 32 38 43 43 41 41 42 41 40 39 39 39 39 40 41 43 43 45
46 48 44 44 42 44 43 37 42 40 38 40 41 42 38 36 36 37 37 38 39 40 39 39 38 41 43
46 45 45 40 43 39 43 41 38 37 38 36 36 35 34 36 39 39 39 39 39 39 40 38 38 38 38
41 43 37 33 41 40 42 40 41 38 42 40 35 35 36 36 36 37 38 37 37 39 40 41 41 40 41
30 32 42 41 40 43 43 44 44 40 43 42 39 41 45 40 37 35 33 33 34 35 36 37 38 38 40
40 40 40 42 44 42 41 44 49 39 35 51 43 45 44 43 37 32 34 35 36 37 37 38 38 39 40
38 37 40 40 40 46 44 43 45 48 42 47 45 47 45 44 39 35 35 35 36 37 37 37 37 38 39
31 35 36 40 39 38 40 43 46 45 34 40 46 46 46 46 43 36 34 33 33 33 33 34 34 36 38
30 36 36 31 28 30 36 39 42 44 42 37 40 44 48 47 34 31 31 33 34 33 34 35 37 39 42
40 34 29 27 29 28 32 36 39 43 39 38 43 38 34 37 36 43 40 35 31 31 31 33 34 37 43
32 32 31 32 32 31 31 32 36 40 39 34 38 40 31 41 46 43 36 40 38 33 25 23 24 30 40
31 34 33 33 35 34 32 30 30 33 32 27 33 35 39 43 43 44 41 36 32 25 30 27 25 26 30
32 32 32 35 37 35 32 31 33 30 27 27 28 30 32 38 41 40 39 38 22 31 27 26 23 21 24
31 31 32 36 36 34 35 35 36 35 29 27 26 27 30 26 27 33 38 31 38 30 28 27 20 20 22
30 31 34 36 35 33 33 34 34 36 37 32 28 27 26 19 25 33 38 41 40 35 29 32 25 23 21
29 30 35 36 35 34 32 32 32 34 35 31 32 34 31 29 25 31 37 41 44 39 30 34 32 32 19
29 32 35 34 33 33 32 32 31 32 32 27 29 30 32 31 22 26 33 39 43 45 35 34 33 29 23

GFSFLT2_850_spd_003.txt.gz
Wind_Speed
38 38 32 31 31 30 29 31 34 38 39 42 41 40 40 42 44 44 43 42 41 40 40 40 39 39 40
41 39 36 35 32 33 34 37 38 36 35 34 37 39 38 39 40 39 40 38 40 40 40 40 40 40 40
42 43 38 31 33 40 37 38 33 33 33 33 34 35 36 37 38 39 39 39 39 39 39 39 39 39 40
37 32 35 40 37 38 39 37 37 36 38 35 34 36 37 38 39 38 38 38 37 37 38 39 39 41 43
35 37 38 37 35 36 38 41 41 36 39 34 39 43 43 39 37 35 34 34 35 35 36 36 37 38 39
36 35 35 32 37 36 38 41 46 32 31 48 44 43 42 41 36 35 36 37 37 37 37 37 38 39 39
33 29 33 34 37 42 40 39 40 44 41 44 45 43 42 43 38 36 36 36 37 37 37 37 38 39 39
27 32 31 37 35 32 35 37 40 43 31 41 45 43 44 47 39 31 31 31 31 32 33 35 36 38 39
28 33 35 28 25 26 31 33 39 43 38 31 34 43 46 44 26 29 30 32 31 32 33 34 36 38 42
37 32 26 23 23 25 30 32 34 38 28 33 38 33 33 24 31 46 38 34 29 31 33 35 36 38 43
30 27 26 26 27 30 29 29 32 33 35 30 34 36 24 39 49 40 38 39 36 30 25 26 28 30 38
25 27 30 29 32 31 29 27 27 30 28 23 29 31 36 41 42 40 39 40 29 32 35 33 30 31 33
26 30 29 31 34 33 31 29 30 28 25 22 23 28 32 36 39 38 40 45 32 43 42 40 35 31 33
28 29 29 33 35 33 34 33 34 32 27 24 24 27 30 30 29 34 36 32 46 46 45 39 32 30 32
29 28 31 35 34 32 31 31 32 34 34 29 26 27 25 25 30 29 37 41 42 45 45 41 33 29 29
27 29 33 34 34 31 29 29 31 32 34 33 30 33 34 29 22 31 36 39 43 45 43 40 36 28 20
29 31 32 32 30 29 29 29 31 31 33 29 26 28 28 29 35 31 34 36 39 43 44 39 33 24 24

GFSFLT2_850_spd_006.txt.gz
Wind_Speed
31 30 31 29 30 28 29 30 33 37 37 36 35 36 36 37 38 39 40 41 41 41 42 42 43 42 42
37 36 33 31 29 31 34 36 34 33 34 35 35 35 35 35 37 38 40 40 41 41 41 41 42 41 41
41 39 37 30 37 39 32 31 28 30 32 33 35 35 34 34 36 39 40 40 41 41 41 41 41 42 43
37 38 30 39 38 35 34 33 33 32 37 33 33 33 33 37 39 39 38 38 39 39 40 40 40 40 40
28 36 40 37 34 33 35 38 42 32 37 31 34 42 41 37 36 35 34 35 37 38 38 38 38 39 39
37 36 35 32 34 36 37 40 42 30 30 47 38 42 41 40 36 36 36 37 38 38 38 39 40 41 41
31 31 33 33 38 39 41 35 38 42 38 47 38 41 41 41 37 35 33 34 35 35 37 38 39 41 42
26 32 34 33 35 34 34 37 37 35 30 40 41 38 41 45 31 24 28 29 30 33 34 35 36 38 40
28 28 32 31 26 27 30 32 38 36 31 29 31 41 44 36 22 25 30 34 31 32 33 33 35 37 40
28 26 23 22 21 20 27 30 33 36 24 27 36 29 31 25 29 41 38 32 33 35 30 28 29 35 41
24 22 21 21 21 23 27 28 29 33 35 29 34 32 25 40 43 42 38 39 39 38 37 38 32 30 35
22 23 24 26 27 30 30 28 29 32 32 25 31 30 32 39 42 43 43 40 41 40 43 45 41 35 34
23 26 26 28 31 34 32 31 31 30 27 25 26 28 29 36 42 45 39 43 38 39 47 46 46 40 38
24 25 26 29 33 33 32 32 33 33 29 27 25 25 30 34 35 39 37 37 45 47 47 48 44 40 34
26 27 29 31 33 31 31 30 30 35 37 31 26 26 28 27 32 30 35 40 45 45 45 47 45 36 32
27 30 32 32 32 31 29 29 31 35 34 32 32 32 33 31 16 26 36 40 42 40 40 42 45 33 24
30 32 31 30 31 31 30 30 32 34 34 29 27 29 31 33 41 28 34 36 40 39 36 40 39 32 28

GFSFLT2_850_spd_009.txt.gz
Wind_Speed
30 29 31 31 33 31 32 36 38 37 35 33 34 35 35 35 36 37 38 38 39 39 39 40 38 39 39
33 34 31 34 31 34 31 37 34 34 30 34 35 35 36 36 37 37 37 38 38 39 41 41 41 41 40
36 35 34 35 28 37 36 31 31 33 33 34 36 36 34 33 35 36 37 39 41 41 41 41 41 42 41
37 39 35 32 36 33 32 32 34 37 40 36 31 33 32 35 37 37 36 36 37 37 38 38 38 39 40
37 33 37 37 31 32 34 37 43 34 42 34 32 43 41 37 36 34 32 34 36 37 38 39 40 40 39
35 37 35 33 33 35 42 35 44 37 27 47 40 43 43 40 35 34 34 33 33 35 36 37 37 38 40
33 30 34 38 39 39 39 40 41 42 39 46 41 43 41 39 34 35 32 26 30 31 30 31 34 36 37
29 33 35 37 34 37 38 38 39 39 31 41 44 41 40 46 38 21 21 25 27 31 33 34 34 33 35
28 30 30 31 27 28 33 34 40 41 39 36 34 44 47 45 33 21 28 36 31 30 31 32 33 34 35
34 31 26 26 22 22 28 34 38 43 37 31 41 35 32 35 31 44 38 37 35 35 32 33 33 35 38
27 29 28 26 26 28 27 30 36 40 38 31 39 39 30 43 47 46 43 43 42 37 36 34 34 34 41
29 31 30 30 29 29 31 32 32 36 36 30 35 36 39 42 47 48 44 43 41 41 39 43 46 42 37
31 32 30 32 33 33 33 32 33 33 30 30 32 34 34 40 44 47 42 45 34 40 44 48 46 43 44
28 30 32 34 34 32 33 34 36 37 31 32 30 27 32 35 38 44 42 39 44 44 47 47 44 43 41
29 31 33 34 32 32 34 35 34 37 39 37 33 31 31 33 36 38 38 39 40 43 43 46 46 42 39
30 32 33 32 33 34 34 33 34 37 37 39 38 38 36 33 24 28 36 38 40 40 42 41 45 43 34
31 32 31 32 33 36 35 34 35 36 37 39 35 34 35 37 46 29 33 36 40 44 39 38 38 40 31

GFSFLT2_850_spd_015.txt.gz
Wind_Speed
34 35 35 36 32 30 30 30 36 34 28 29 27 30 31 31 32 33 34 34 33 33 33 33 33 33 33
32 34 35 33 31 29 34 35 32 32 29 31 31 31 32 31 31 32 32 32 32 32 32 33 33 34 34
34 35 37 34 31 40 37 38 35 38 34 34 32 30 29 29 29 30 33 33 32 31 31 32 32 32 33
32 36 35 32 39 38 42 40 41 38 38 32 31 30 30 31 30 30 28 28 28 28 29 30 30 31 31
32 35 32 36 37 39 43 43 43 40 35 38 38 35 35 34 33 29 28 29 31 32 31 30 29 30 30
32 36 39 36 38 39 39 41 40 35 40 45 37 39 41 39 36 33 32 31 30 33 33 30 28 29 29
34 33 35 35 34 37 35 37 41 43 43 46 39 45 43 40 37 33 26 23 26 26 25 24 26 28 30
32 32 29 29 31 34 34 37 39 38 36 42 44 43 42 42 36 25 25 29 25 25 27 31 30 30 31
27 24 25 27 24 26 29 32 39 40 38 37 38 45 44 42 32 29 35 31 32 27 25 28 29 30 32
29 28 25 22 21 23 28 32 36 39 36 33 40 38 30 36 25 40 39 38 33 31 28 27 27 29 31
29 27 24 23 25 26 27 29 33 35 35 34 38 36 31 43 43 43 42 40 38 34 30 24 20 23 29
27 27 26 27 29 29 26 26 27 34 35 29 33 33 36 42 47 46 42 39 37 35 26 28 26 24 27
26 27 26 29 31 30 27 27 30 31 29 29 30 31 32 38 44 44 43 41 29 28 33 31 32 31 33
26 25 26 29 30 29 32 34 37 36 27 30 29 30 34 35 37 42 38 37 37 35 34 36 37 34 34
25 26 28 31 31 30 32 37 38 39 38 32 29 32 32 33 35 35 37 38 38 38 38 40 37 35 35
24 26 29 31 32 33 35 35 38 38 38 37 38 38 37 37 28 32 37 40 39 37 35 37 42 39 36
25 27 29 31 34 36 35 36 37 37 38 39 38 37 38 38 40 29 31 37 36 36 36 38 38 40 35

GFSFLT2_850_spd_018.txt.gz
Wind_Speed
32 32 31 31 30 28 26 28 30 27 26 26 25 27 27 28 29 30 31 32 31 32 32 32 32 32 33
31 32 32 32 33 29 31 28 30 29 29 27 28 28 27 27 27 29 29 30 31 32 33 33 34 34 35
31 32 34 33 33 35 36 34 33 32 30 31 28 26 25 27 27 28 29 31 31 32 31 31 32 32 32
29 33 33 36 37 37 38 35 36 34 35 30 27 30 28 27 27 30 31 30 30 29 29 30 31 32 32
28 33 35 38 38 37 37 37 39 37 35 34 37 37 29 31 32 31 28 28 29 31 32 32 32 33 32
29 33 37 37 35 33 34 38 40 37 40 42 38 39 36 36 33 32 31 31 31 30 30 31 31 31 31
30 33 34 31 29 33 35 38 41 40 39 46 41 43 36 34 34 33 30 24 24 27 28 28 27 27 28
31 32 28 27 29 33 35 36 39 37 35 46 42 39 40 40 36 29 23 22 26 26 27 29 32 31 32
27 24 24 25 27 28 29 32 40 42 38 30 38 44 46 42 32 28 31 31 31 33 31 30 29 30 33
26 25 25 24 22 22 26 32 35 40 31 34 39 38 30 33 28 39 37 36 35 31 30 29 29 30 33
27 26 25 24 22 22 25 28 31 35 36 32 40 38 33 44 42 43 42 39 37 35 31 27 26 26 30
25 26 27 25 24 25 26 26 27 32 33 33 35 35 37 42 47 46 42 41 39 36 29 21 25 26 29
25 27 27 26 27 29 28 27 30 31 31 30 31 31 32 38 44 46 45 43 34 28 33 31 31 30 31
26 27 26 26 28 28 31 32 37 37 33 30 29 30 35 37 38 43 41 42 38 33 33 34 32 31 32
24 26 27 28 29 29 33 35 36 38 38 32 29 32 33 34 36 38 38 38 38 38 37 39 37 35 34
24 25 27 28 32 34 34 33 34 35 36 36 37 38 38 38 30 33 38 41 41 40 37 39 43 38 34
24 23 25 30 33 34 33 33 35 35 36 37 38 37 38 38 42 31 33 40 37 37 36 34 38 40 35

GFSFLT2_850_spd_021.txt.gz
Wind_Speed
29 28 30 29 30 30 29 28 29 28 26 26 26 26 26 27 28 28 28 28 28 29 31 31 32 32 33
30 29 30 29 31 30 29 28 29 26 25 25 26 26 25 25 25 26 28 28 30 31 32 33 33 34 33
29 30 31 31 33 33 33 32 29 26 26 28 24 24 23 25 27 28 27 28 29 31 32 32 32 33 32
28 29 30 32 33 37 39 34 33 31 31 25 26 29 27 26 27 28 30 31 32 31 30 30 31 31 32
26 30 32 33 36 37 36 34 36 33 31 33 34 33 31 31 30 30 29 29 29 29 30 33 34 34 34
27 30 32 36 36 33 32 35 38 34 38 41 37 39 37 31 28 29 31 32 31 32 32 32 32 31 32
28 31 34 34 30 30 31 36 39 39 38 48 43 40 31 32 31 32 30 26 27 29 29 30 30 30 30
29 32 31 27 27 30 34 38 37 36 34 46 40 38 39 40 37 26 24 26 27 28 28 29 31 32 34
29 27 25 25 27 29 30 31 38 39 37 25 39 44 45 42 35 33 35 33 32 33 32 33 33 32 34
25 26 26 24 23 24 25 29 32 38 27 31 40 38 34 40 39 42 39 37 34 33 32 31 30 31 34
28 26 24 24 24 23 23 27 32 35 37 32 40 41 37 45 47 46 43 41 39 37 33 30 27 26 31
24 25 26 26 24 23 25 27 30 33 33 32 37 38 39 44 48 48 45 43 40 39 32 25 25 25 25
24 26 26 26 25 26 27 28 32 34 33 29 30 31 33 38 45 48 47 45 36 33 35 32 30 28 29
25 26 27 26 26 26 30 33 36 37 31 29 28 29 34 37 39 45 42 42 40 35 35 36 34 32 30
23 26 25 25 25 28 31 33 34 36 38 33 30 31 33 35 36 37 37 38 38 39 39 40 36 33 32
23 24 23 24 30 31 31 31 34 36 37 36 37 39 39 40 29 32 37 41 41 40 38 41 43 37 34
23 21 22 25 29 31 32 34 36 37 37 39 39 38 38 38 44 32 33 40 38 39 38 37 40 41 35

GFSFLT2_850_spd_024.txt.gz
Wind_Speed
27 25 28 29 28 28 28 29 29 27 26 26 25 23 23 25 25 26 27 28 27 29 29 29 29 30 31
28 28 28 27 28 29 29 28 28 25 23 22 24 25 24 23 23 25 26 28 30 31 30 30 31 32 32
29 28 29 28 30 31 30 31 27 24 21 24 22 21 22 23 24 26 27 28 29 30 30 32 33 33 33
26 27 28 29 31 33 36 33 31 25 24 21 23 25 23 25 27 27 28 30 30 31 32 32 33 33 33
25 27 30 32 32 34 36 34 31 27 28 30 31 29 27 28 25 23 24 26 28 31 31 32 33 34 34
26 29 31 32 33 34 31 31 35 33 36 39 34 34 34 26 26 26 27 29 29 30 31 32 34 34 34
26 29 31 31 30 29 29 32 36 36 37 44 37 38 31 32 29 28 26 22 23 25 28 29 30 31 31
26 29 29 26 25 29 33 36 37 34 31 42 38 38 39 38 36 28 27 27 27 28 29 29 30 31 32
26 25 23 24 25 29 29 30 36 35 33 30 39 44 44 43 36 37 39 35 34 33 32 31 31 31 34
23 23 22 21 20 22 26 28 29 34 29 30 39 39 30 44 44 42 40 37 34 33 33 31 30 30 34
24 22 20 21 21 21 22 24 28 32 34 30 39 40 38 44 48 46 43 41 38 36 32 28 25 24 28
21 21 21 22 22 22 22 24 27 32 33 31 34 33 34 39 45 47 44 43 40 36 29 27 26 24 25
21 22 23 24 23 23 22 26 30 30 27 25 26 28 30 36 42 45 45 42 34 32 35 33 30 28 29
22 23 24 24 22 22 28 29 31 30 29 29 27 27 32 36 38 44 39 40 36 35 37 37 34 33 32
21 24 24 23 21 24 27 30 33 36 36 32 31 32 32 35 38 35 35 38 39 39 39 40 38 35 33
22 23 23 22 25 25 28 33 35 35 35 33 34 37 36 38 30 34 38 39 41 42 40 39 42 37 35
22 22 20 21 25 27 31 34 35 35 36 37 37 37 37 38 45 30 35 41 38 40 39 36 40 40 35

GFSFLT2_850_spd_027.txt.gz
Wind_Speed
22 22 24 25 27 27 28 28 30 27 27 27 26 25 23 24 25 26 26 26 26 27 28 28 27 29 30
26 25 26 25 27 27 26 27 28 27 26 24 23 24 25 23 23 24 24 26 27 28 28 30 30 30 31
28 28 29 26 27 27 29 29 29 27 24 21 21 18 20 22 23 25 27 29 29 29 30 30 31 32 32
27 27 28 27 27 28 29 28 32 26 23 19 20 22 20 21 23 26 28 28 27 27 28 29 30 31 32
24 26 28 24 21 23 28 30 29 26 21 23 25 24 19 21 23 22 23 25 27 28 28 30 31 32 33
23 26 23 22 26 28 27 25 26 21 28 29 29 27 24 24 24 25 25 26 28 29 29 29 29 30 31
21 22 27 24 27 27 25 27 27 29 30 37 31 31 26 28 27 27 26 21 22 24 27 29 30 30 31
23 25 25 23 21 24 26 28 31 30 28 30 30 31 32 33 32 27 25 26 26 24 26 28 29 31 33
23 22 20 21 21 23 24 25 29 27 27 22 32 33 35 38 33 32 32 30 30 29 29 29 30 31 33
18 18 18 17 15 18 21 24 25 27 22 25 32 32 25 34 34 36 35 32 29 28 28 28 28 30 33
18 16 15 15 16 17 18 20 22 26 28 25 33 32 25 35 41 39 38 38 37 35 32 28 23 21 26
14 14 15 16 16 17 17 18 22 25 23 22 28 28 30 36 41 41 38 38 39 36 29 25 27 25 26
14 15 17 18 18 17 15 19 22 21 22 23 26 26 28 34 40 42 41 38 29 30 31 31 32 30 29
16 18 19 20 17 17 20 22 26 26 26 24 24 26 30 33 35 41 35 34 33 33 33 33 33 30 30
17 20 20 20 16 17 20 23 28 33 32 28 29 32 33 34 36 35 33 38 35 37 37 37 35 33 30
18 20 22 20 19 19 21 26 31 33 33 31 33 34 35 34 26 30 39 37 41 38 37 36 40 34 30
20 21 20 17 19 21 23 28 33 33 33 34 35 35 34 36 38 28 31 38 37 39 37 37 38 37 32

GFSFLT2_850_spd_030.txt.gz
Wind_Speed
20 22 22 23 23 28 33 31 29 30 32 31 32 32 31 27 26 26 26 26 27 27 27 27 28 28 28
23 26 25 19 22 28 30 29 28 30 31 31 30 30 29 28 26 24 25 26 27 27 28 29 29 29 29
24 24 21 22 25 28 27 26 27 28 28 30 26 25 25 26 25 27 28 29 29 30 30 30 31 31 31
19 21 24 23 20 20 18 18 22 24 27 26 22 22 24 26 26 26 28 30 32 31 29 28 29 29 30
20 18 15 13 13 16 19 20 21 23 22 20 19 23 24 24 22 24 26 27 28 30 30 28 29 31 32
13 15 15 15 15 18 19 22 24 20 18 23 23 26 26 24 23 26 28 28 29 30 31 31 30 32 33
16 16 17 17 20 23 19 20 23 23 23 28 24 28 24 26 27 28 28 26 24 25 28 29 30 31 32
15 16 18 18 17 18 19 22 22 22 19 28 24 24 25 28 28 27 22 22 23 24 25 27 29 31 32
21 22 21 20 19 18 21 18 22 22 20 23 22 22 27 31 23 23 28 26 25 24 25 28 29 31 33
14 16 15 15 15 16 18 20 20 22 10 21 25 22 19 27 19 28 27 30 30 30 28 28 27 29 32
14 13 12 13 13 15 18 21 23 25 22 20 30 28 23 31 37 31 30 31 33 35 34 30 25 24 27
12 12 13 15 16 18 19 21 21 23 22 24 31 30 30 35 39 39 36 37 36 34 31 29 28 27 26
12 13 15 17 18 19 17 18 23 22 21 21 26 26 28 32 39 42 41 36 30 29 33 31 30 30 30
15 16 18 20 19 20 19 20 25 25 23 26 28 27 30 32 36 42 38 34 31 30 28 32 31 30 30
17 19 20 22 21 18 19 22 25 28 31 29 26 28 31 32 36 36 34 36 35 34 34 37 34 31 31
18 20 23 23 21 18 19 22 26 30 33 32 31 30 32 32 26 33 35 36 37 34 33 36 38 34 31
19 21 23 23 21 21 22 24 28 32 34 33 30 28 32 35 31 24 32 36 35 34 34 32 35 37 32

GFSFLT2_850_spd_033.txt.gz
Wind_Speed
22 21 21 22 29 33 33 32 31 31 32 34 34 33 32 31 31 29 26 26 26 26 25 26 26 27 26
22 21 24 26 27 27 26 26 30 32 33 32 31 28 30 30 28 27 26 26 25 25 26 26 27 27 28
22 22 23 21 21 23 27 27 25 24 24 25 27 29 27 25 24 26 27 27 27 27 27 28 29 29 30
18 18 18 19 19 18 19 17 20 25 28 29 25 24 22 22 24 23 25 26 26 27 28 29 28 28 28
15 15 14 11 12 14 19 22 24 27 28 26 21 22 25 25 23 22 23 24 25 27 28 28 28 29 29
12 10 10 13 11 14 20 23 30 23 18 26 23 25 26 24 22 22 25 27 28 28 29 29 30 31 31
12 13 12 13 19 23 24 21 23 24 22 27 23 27 24 24 24 24 26 26 27 27 27 28 28 29 31
12 15 16 18 18 18 19 22 24 23 18 28 26 28 25 26 26 24 19 21 22 22 23 25 27 29 30
14 16 17 16 17 18 19 20 24 24 21 25 22 25 30 28 22 21 26 28 26 26 25 26 27 28 31
12 12 13 12 12 14 15 19 20 22 8 20 25 27 22 31 32 34 31 31 29 29 31 31 30 30 33
11 9 9 10 11 13 15 19 22 25 25 18 28 29 31 38 41 38 37 37 37 37 36 34 30 26 29
8 8 10 12 14 17 19 22 24 25 22 23 30 29 31 37 42 41 40 39 39 37 33 27 27 28 27
9 11 13 15 17 20 20 20 22 20 19 19 23 26 30 35 40 42 43 41 34 28 31 31 31 30 32
11 12 14 17 19 20 22 21 22 23 21 20 22 26 32 35 37 42 40 39 37 32 30 31 29 30 32
14 15 17 19 20 20 20 20 23 26 26 25 24 26 29 32 36 39 39 39 38 38 36 39 37 33 32
16 17 19 21 23 22 21 21 24 26 28 29 30 33 33 33 29 35 37 39 40 39 37 38 39 34 31
18 19 21 23 24 25 23 23 25 27 30 31 32 33 33 34 34 26 35 41 38 35 33 36 39 39 33

GFSFLT2_850_spd_036.txt.gz
Wind_Speed
21 25 25 26 31 29 25 30 30 28 26 27 29 31 32 30 28 27 27 26 23 22 22 22 22 22 23
18 22 22 24 25 25 25 25 26 26 28 27 25 25 24 24 25 25 24 22 21 21 21 21 22 23 23
17 18 18 18 20 22 22 22 22 20 20 19 24 25 23 21 21 21 21 21 22 23 23 24 24 24 25
12 13 15 16 18 15 15 15 18 20 23 23 25 23 21 19 18 19 20 20 21 22 22 23 24 24 25
11 11 11 9 10 12 17 18 20 23 28 23 21 19 18 17 18 19 19 19 20 21 22 24 25 26 27
10 8 7 8 11 13 16 20 27 22 21 18 17 16 14 16 16 16 18 19 20 22 23 25 26 27 28
9 9 10 12 15 18 20 22 21 19 20 23 19 19 17 16 16 16 17 17 17 19 22 24 25 26 27
10 11 13 15 17 19 20 21 20 18 17 25 21 19 18 17 17 14 13 15 19 20 21 23 24 25 26
11 11 14 14 14 15 14 16 18 19 17 15 19 25 24 21 14 16 23 22 23 23 22 24 25 26 28
13 11 11 10 9 11 12 15 16 18 8 18 25 24 22 22 27 28 28 29 27 27 27 28 26 25 30
11 9 7 8 9 11 13 16 20 22 22 20 25 26 27 33 36 34 34 34 32 31 28 26 23 21 24
7 7 9 10 11 14 17 18 21 23 21 20 25 24 27 33 39 38 35 36 35 31 26 28 24 23 24
9 10 11 13 15 16 18 20 21 20 16 15 20 22 26 32 37 40 42 40 31 35 32 30 26 25 28
11 12 14 15 16 17 20 20 21 19 15 16 18 21 27 29 32 40 39 38 37 34 35 35 31 29 29
13 14 15 16 17 18 19 20 22 22 21 18 18 21 26 28 34 36 36 36 35 36 37 40 35 32 31
15 17 18 19 21 21 21 22 23 23 23 22 24 27 30 33 29 33 36 38 38 40 40 40 38 34 32
18 19 20 22 23 23 23 25 26 25 25 25 25 26 32 36 39 29 32 37 40 35 35 35 38 36 33

GFSFLT2_850_spd_042.txt.gz
Wind_Speed
28 25 25 26 30 30 32 31 28 27 26 27 25 23 24 25 24 23 21 19 20 20 19 19 19 19 20
20 17 21 22 22 23 25 29 24 25 22 23 22 22 21 18 19 21 21 21 20 19 19 18 19 19 20
15 15 15 19 22 20 21 22 20 21 20 17 14 13 18 21 22 21 20 20 20 18 18 18 18 18 19
11 10 10 13 15 16 16 17 17 16 14 15 17 18 22 25 25 23 21 20 20 19 19 18 17 17 17
8 7 8 9 10 13 13 12 14 15 15 18 20 20 19 20 19 17 16 16 17 16 16 16 17 18 19
9 10 10 10 9 9 11 13 13 12 16 16 17 16 14 17 16 15 16 15 16 16 17 17 18 19 20
10 10 10 10 12 13 14 16 17 16 19 17 11 13 13 15 15 14 14 14 14 14 15 17 20 22 22
11 11 12 13 14 15 16 16 17 13 13 17 11 13 12 14 16 16 16 13 12 17 18 22 24 26 27
12 11 11 12 12 14 12 13 13 11 12 16 12 16 16 15 14 14 13 12 14 17 20 22 24 27 29
14 14 13 12 12 14 12 12 12 12 7 12 20 19 11 10 13 15 14 15 15 18 19 21 23 26 27
11 10 9 9 9 10 11 13 15 17 16 18 24 24 20 23 22 20 17 16 18 18 17 18 18 22 25
8 7 8 9 11 13 14 16 18 20 19 22 27 25 23 26 29 25 23 20 21 21 14 18 19 20 23
8 9 10 11 12 14 15 17 19 20 20 22 24 24 25 27 31 29 30 25 22 20 24 23 24 24 26
10 11 12 13 14 16 17 17 19 17 15 16 18 20 24 27 29 32 28 31 27 26 27 28 28 29 27
13 12 13 14 14 16 18 18 19 20 19 18 19 20 23 25 29 31 29 29 27 28 28 33 32 30 25
13 14 16 17 18 18 19 20 22 22 23 22 22 24 25 27 26 28 25 28 27 28 32 35 37 31 27
16 17 18 20 21 22 21 23 25 26 25 24 23 23 27 31 30 24 27 27 32 37 35 33 36 34 29

GFSFLT2_850_spd_045.txt.gz
Wind_Speed
27 26 26 23 20 20 23 26 26 28 25 24 21 21 24 24 23 26 24 21 19 19 19 20 19 19 20
20 17 18 17 18 17 22 23 25 26 23 21 22 23 24 24 24 18 18 22 22 20 19 19 19 19 19
13 13 12 12 14 17 19 21 20 19 18 20 20 20 18 15 19 22 23 22 22 20 21 20 19 18 18
8 10 10 9 9 11 14 15 16 16 16 15 15 14 17 20 23 25 27 26 23 20 18 18 18 17 17
8 8 7 7 8 9 12 13 14 12 12 16 17 20 21 23 23 21 20 19 18 17 16 15 15 17 17
10 10 10 9 10 10 10 12 12 13 17 17 19 20 18 20 18 17 17 17 17 17 16 16 17 17 18
10 9 9 9 9 11 12 14 16 16 19 19 15 14 15 15 16 17 18 18 16 16 17 17 17 17 19
11 11 11 12 13 15 15 16 16 14 15 17 11 12 13 14 17 18 19 19 18 18 16 19 20 22 25
12 12 12 12 14 15 13 11 13 10 12 15 13 14 15 17 18 18 18 19 16 16 18 21 22 25 28
14 14 14 13 12 13 12 11 11 10 7 12 17 20 11 13 12 13 13 16 15 19 21 23 24 28 28
12 11 10 10 9 10 10 12 13 15 15 17 22 23 22 24 21 15 15 19 25 22 23 22 24 25 25
10 8 8 8 10 11 13 15 17 18 17 20 25 24 25 28 29 26 23 22 25 23 22 21 17 23 26
9 9 10 11 12 14 15 17 19 19 18 19 21 21 23 26 31 28 28 29 26 23 18 22 23 24 27
11 12 13 14 13 15 17 16 19 16 16 16 18 21 23 24 26 30 26 32 27 28 29 27 27 26 28
14 14 13 14 14 16 17 18 20 21 19 17 18 21 24 26 30 29 29 29 28 27 28 31 30 30 32
16 16 17 18 19 18 18 20 23 24 24 21 21 24 27 29 27 28 27 28 24 24 25 32 36 32 34
18 18 19 21 23 23 23 24 25 26 26 24 23 22 27 32 34 25 25 23 28 31 31 35 38 38 35

GFSFLT2_850_spd_048.txt.gz
Wind_Speed
23 23 23 20 17 13 11 10 13 22 21 19 19 22 22 24 21 19 22 23 21 21 17 16 16 15 15
19 18 17 14 12 11 8 10 13 19 21 22 26 26 26 24 23 22 21 18 17 20 19 17 16 16 16
13 12 12 13 12 9 7 9 11 14 17 18 19 20 21 21 20 16 19 21 24 24 21 19 18 16 15
8 10 10 11 10 9 8 9 10 11 13 14 15 17 19 19 20 21 20 21 23 24 22 19 16 15 15
10 10 11 11 10 11 10 9 10 11 12 13 15 16 18 19 21 22 22 21 19 18 16 14 13 12 12
10 10 10 11 11 10 11 12 11 12 13 14 17 19 20 21 19 19 17 15 15 14 14 14 14 13 14
10 10 10 11 12 12 14 15 16 16 20 20 16 13 13 13 14 15 15 15 15 16 16 15 14 14 14
11 11 11 12 12 14 15 15 15 13 13 14 10 10 11 13 15 16 16 16 17 17 17 17 17 17 19
12 12 12 13 15 15 15 14 13 10 11 11 10 13 12 13 13 15 17 19 21 21 20 18 20 22 22
12 13 13 12 12 12 12 11 11 8 6 13 16 15 10 10 5 12 15 14 16 18 18 19 22 24 25
11 10 9 9 8 8 9 10 12 13 15 16 20 21 20 22 20 17 16 17 17 21 23 25 24 27 28
8 8 8 8 9 10 11 13 15 16 15 18 23 22 22 26 28 23 22 19 21 25 28 28 27 26 25
8 8 9 10 11 13 13 15 17 17 17 18 19 19 22 25 29 31 27 26 25 16 15 18 18 21 26
11 12 13 13 12 12 14 15 18 14 13 16 18 20 23 26 28 32 26 29 28 27 26 27 25 25 27
12 13 14 14 14 14 15 17 20 21 19 16 17 20 24 28 34 32 30 28 26 25 26 29 29 25 25
16 16 17 18 19 19 18 19 22 23 24 22 22 23 24 27 28 26 26 27 22 21 23 28 31 27 29
18 18 19 19 21 22 22 23 24 24 24 24 24 23 24 28 32 27 24 24 28 31 29 30 34 34 33

GFSFLT2_850_spd_051.txt.gz
Wind_Speed
16 17 17 16 15 15 9 2 3 8 15 17 21 21 29 29 30 24 23 19 20 19 21 17 18 18 20
12 12 12 11 13 14 12 7 5 12 16 19 18 18 20 22 24 23 23 23 23 21 21 22 24 19 15
8 7 9 9 11 11 8 8 7 7 11 13 15 18 19 19 19 20 18 20 23 22 20 21 22 18 17
6 8 8 9 10 9 9 8 7 8 10 11 12 13 15 18 20 20 21 20 20 21 21 23 24 22 18
7 7 8 9 10 11 10 10 9 9 10 12 12 13 14 16 18 18 20 21 23 24 22 20 18 16 14
7 7 9 9 10 10 10 11 10 11 10 12 16 16 18 19 20 20 19 18 17 16 15 15 16 14 16
8 8 9 10 10 11 12 12 13 15 17 15 13 9 10 11 11 11 11 12 13 14 15 17 16 15 16
9 10 10 11 11 11 12 12 12 11 10 10 8 6 7 10 10 11 12 13 14 15 16 17 17 17 18
10 10 10 11 12 11 11 11 10 8 8 6 8 12 10 8 8 8 8 10 13 18 21 21 20 20 19
9 9 9 8 8 8 8 7 8 6 6 13 13 12 8 7 3 13 13 14 15 15 17 20 22 21 21
7 7 6 6 6 6 7 8 9 9 13 13 16 17 15 18 17 14 11 12 15 16 19 22 25 24 24
6 5 6 6 7 8 9 11 12 12 13 15 18 17 19 23 24 21 20 19 18 15 16 21 26 32 34
5 6 7 8 9 10 10 12 13 13 14 14 15 17 19 23 26 29 28 24 21 12 15 20 21 23 25
7 8 9 10 10 10 11 13 16 13 13 15 17 19 22 24 27 30 28 27 26 24 24 24 23 23 25
9 9 10 11 12 12 13 15 18 19 19 17 16 19 22 25 30 31 29 27 21 22 23 23 22 21 21
11 12 13 14 15 15 16 17 19 19 21 21 22 23 24 24 25 23 24 25 19 18 22 26 28 26 27
13 14 15 16 18 18 19 21 22 22 22 22 22 23 25 28 30 27 22 20 25 27 28 30 32 31 28

GFSFLT2_850_spd_057.txt.gz
Wind_Speed
21 20 18 16 13 11 10 9 9 9 8 7 7 6 8 9 11 13 17 20 23 27 30 32 26 21 24
15 16 14 12 12 11 11 9 10 9 11 11 13 14 15 16 17 19 21 22 24 26 24 25 22 22 24
14 12 12 10 11 11 10 9 10 9 10 12 16 18 20 21 21 21 21 21 22 23 24 23 23 25 26
9 10 11 10 10 11 9 11 12 11 12 13 13 14 14 16 17 17 18 19 20 19 19 18 19 20 21
8 8 10 8 10 11 11 11 10 12 13 13 14 14 14 15 16 17 17 16 16 17 17 18 19 19 21
7 6 8 11 10 12 12 12 7 14 12 12 16 15 16 17 18 17 18 18 19 20 21 21 21 20 19
8 10 10 14 12 13 12 11 10 13 13 8 8 7 9 11 11 11 12 12 12 13 14 15 15 15 15
10 12 12 13 12 10 10 10 8 10 9 7 6 6 9 10 10 10 10 11 11 12 13 14 15 16 17
9 10 11 10 9 9 8 7 5 5 11 7 8 10 10 10 10 8 7 7 11 12 13 14 17 19 19
7 7 8 7 7 7 7 5 5 4 8 10 11 11 6 8 5 8 13 13 13 13 12 14 16 19 21
7 7 7 6 6 6 7 7 7 8 13 12 12 13 11 15 14 13 13 13 14 16 17 17 18 19 20
7 7 8 8 8 9 10 10 11 11 12 14 15 15 16 19 20 17 18 17 17 17 19 18 18 20 21
9 9 10 10 10 11 12 11 11 11 12 14 15 15 18 21 22 24 25 23 20 13 13 18 20 22 23
11 11 12 12 12 12 12 13 15 14 15 14 15 16 19 21 24 26 25 27 25 22 21 21 19 20 23
13 13 13 14 14 14 14 15 17 18 18 18 19 18 19 22 27 26 25 27 25 23 23 26 23 18 18
14 14 15 15 16 16 17 18 19 18 19 20 21 22 25 28 25 22 21 24 23 23 22 25 27 23 23
16 16 16 17 18 18 18 19 20 21 21 21 23 23 25 31 30 23 25 23 25 26 26 27 31 29 29

GFSFLT2_850_spd_060.txt.gz
Wind_Speed
20 18 20 17 14 11 10 12 12 11 10 6 3 3 3 6 7 6 7 13 17 18 18 19 18 15 21
16 16 14 12 11 9 9 10 10 9 9 8 8 9 10 10 11 14 15 17 19 21 23 23 19 20 22
11 13 10 8 9 9 9 10 10 10 9 9 9 10 13 14 15 16 17 18 19 20 23 23 23 23 21
9 7 8 8 7 7 7 10 11 11 11 12 12 11 12 13 14 14 14 15 16 17 18 19 19 21 22
7 7 6 7 8 9 10 10 12 13 11 12 13 12 12 14 14 14 13 14 15 16 16 17 17 17 17
8 7 8 9 11 10 10 10 9 12 11 11 11 10 11 11 12 12 13 14 15 17 18 18 19 19 20
9 10 11 11 12 12 11 10 10 10 9 6 6 5 7 8 7 7 8 8 8 9 10 12 13 13 14
9 10 10 10 10 9 8 8 7 7 6 5 5 5 7 9 8 8 8 7 7 9 10 11 12 13 13
8 9 9 9 9 8 7 6 4 5 6 6 7 9 9 7 5 6 6 6 9 11 11 11 12 13 16
7 7 7 6 7 5 5 5 4 4 4 7 9 10 6 6 5 11 11 11 11 11 10 13 14 15 16
6 6 5 5 5 4 5 6 6 7 11 10 11 12 12 14 11 12 10 10 13 13 15 16 16 17 18
6 6 6 6 5 5 7 8 9 10 11 12 13 14 16 18 17 15 16 16 17 16 17 16 16 16 16
8 8 8 8 8 9 9 9 10 10 10 12 14 15 16 19 22 22 22 19 18 10 16 17 18 19 21
10 10 10 10 10 11 11 12 11 8 11 12 13 15 16 19 22 24 23 25 23 23 20 19 18 18 20
12 12 12 13 12 12 12 13 14 14 13 14 16 17 18 21 25 25 24 22 20 21 22 23 21 16 17
12 13 13 13 14 14 14 15 16 15 16 16 18 20 23 25 25 24 21 21 20 21 21 24 27 22 23
14 13 14 14 15 16 15 16 17 17 17 19 20 21 24 28 27 22 21 18 24 27 27 26 29 26 24

GFSFLT2_850_spd_063.txt.gz
Wind_Speed
18 18 19 18 18 12 10 9 8 8 9 8 1 2 3 6 6 4 4 7 12 16 18 20 17 17 16
19 18 18 18 12 10 9 9 8 8 8 7 5 5 7 8 8 10 10 11 12 13 13 17 19 20 19
15 16 15 9 9 9 10 9 9 9 9 9 7 7 8 9 11 14 16 18 19 20 20 22 22 22 20
14 14 11 9 9 8 8 9 10 10 11 10 9 9 9 10 10 10 11 13 14 16 17 19 20 20 21
10 11 8 9 6 8 8 10 10 9 9 10 9 9 10 10 11 12 12 12 13 14 15 16 16 16 16
10 10 9 8 8 9 9 10 8 7 6 8 6 5 5 5 6 6 7 8 11 12 14 16 17 17 17
8 8 9 9 10 11 10 9 7 6 4 3 1 2 3 3 3 4 5 5 5 6 7 8 9 10 11
8 9 10 10 10 9 7 7 5 4 2 3 1 1 4 4 4 5 4 3 3 5 7 8 8 9 10
8 9 10 9 9 8 7 5 5 4 2 1 1 4 3 1 1 1 2 4 7 9 9 10 10 11 12
7 7 7 7 8 7 6 5 4 4 1 2 4 4 2 1 2 7 7 8 8 8 9 11 12 14 14
6 6 6 7 7 6 5 5 5 5 5 5 4 6 5 7 5 9 6 7 10 11 13 14 14 15 17
6 6 7 6 6 7 7 6 6 7 8 8 8 9 10 12 11 9 11 13 14 14 14 12 13 14 16
7 7 7 7 8 8 8 8 9 8 9 10 10 12 12 14 17 16 16 15 13 5 14 19 19 19 19
8 8 9 8 9 10 10 11 9 9 10 11 12 14 15 16 19 19 18 17 18 19 20 19 17 17 19
10 10 11 12 10 12 11 12 12 9 9 12 14 15 16 18 21 20 20 21 17 18 22 24 20 17 17
11 10 11 12 13 12 13 12 13 12 13 13 15 17 19 21 21 20 19 20 17 17 19 24 25 20 20
11 11 12 12 13 13 13 14 15 15 15 16 17 19 21 24 23 21 20 19 21 22 24 26 28 24 23

GFSFLT2_850_spd_069.txt.gz
Wind_Speed
17 18 19 15 18 17 17 16 12 10 8 6 4 7 9 9 7 6 6 5 7 10 12 11 9 8 17
23 21 19 18 18 18 16 14 11 10 9 8 6 7 9 10 10 10 9 6 5 8 12 13 12 12 14
20 19 18 18 19 18 14 12 11 11 11 10 9 9 9 10 10 13 13 13 12 12 12 14 16 15 16
17 17 18 17 18 14 12 12 11 11 12 12 10 9 11 12 11 11 12 15 17 19 20 19 20 19 21
13 14 16 17 15 12 13 12 12 12 11 11 11 9 10 11 12 12 13 14 15 15 16 17 17 19 19
13 14 14 14 11 10 11 10 10 11 10 10 9 7 7 6 6 7 8 10 13 14 14 15 16 16 17
13 15 14 11 11 11 11 10 10 10 8 8 6 5 4 4 4 4 4 4 4 5 6 6 7 8 9
10 11 12 11 12 11 11 9 8 7 7 6 6 5 5 5 5 6 5 5 4 4 4 5 6 7 8
9 10 10 10 11 10 9 8 7 7 7 6 7 6 6 6 7 6 6 5 5 6 6 7 8 9 10
7 6 7 8 7 7 8 7 7 7 8 8 7 6 5 8 8 8 8 8 8 9 9 9 11 12 13
7 7 7 7 7 6 7 7 8 8 6 8 8 8 7 5 8 10 10 10 11 10 12 14 15 16 16
7 7 7 7 7 8 8 8 8 9 10 10 11 10 10 10 10 9 9 10 13 15 15 17 19 19 19
8 8 8 9 9 9 10 10 10 11 11 11 12 12 12 12 13 11 11 12 15 16 17 18 17 18 22
9 10 10 10 11 12 12 12 12 13 12 13 14 14 14 15 17 14 12 12 12 16 20 22 23 23 22
11 13 11 13 13 14 14 14 13 14 14 15 16 16 17 17 19 17 17 18 16 18 21 21 21 21 21
13 13 13 14 14 16 16 17 16 15 16 17 19 19 19 19 19 19 18 17 19 20 19 21 23 20 20
16 15 15 16 17 17 17 18 18 16 16 17 18 19 21 22 20 21 19 15 16 19 22 23 25 23 22

GFSFLT2_850_spd_072.txt.gz
Wind_Speed
25 16 15 16 18 17 18 19 17 15 13 10 8 8 10 10 7 6 5 7 4 6 10 12 16 17 17
18 15 16 18 17 19 19 17 15 13 11 10 9 8 10 11 11 10 9 6 6 8 9 11 11 9 9
21 22 20 18 18 18 18 17 13 12 10 11 10 10 11 10 11 12 13 11 9 11 14 14 14 14 12
18 16 17 17 17 18 18 13 13 12 12 12 11 11 12 11 11 11 11 14 15 14 13 13 15 18 18
15 15 16 16 17 17 13 13 13 13 12 12 11 11 11 11 12 12 11 12 12 14 16 18 18 19 20
14 15 15 15 15 12 11 11 10 11 11 11 11 9 9 8 9 8 9 11 11 12 13 14 16 17 19
14 13 13 14 11 11 11 10 10 10 9 8 9 8 7 6 6 5 5 5 5 6 8 9 10 11 12
13 13 12 11 11 10 10 10 9 9 9 8 8 8 8 8 8 8 6 5 5 5 5 6 6 6 7
7 8 9 10 10 10 10 9 8 8 8 7 8 8 8 8 8 8 7 6 5 5 5 6 6 7 8
7 7 8 8 9 9 8 8 8 6 8 8 7 7 5 9 9 8 8 7 6 7 8 8 9 9 9
8 7 7 7 7 6 6 6 7 8 5 8 7 9 8 5 8 9 10 9 9 10 10 11 12 12 12
8 8 7 7 7 6 5 6 7 7 9 10 10 9 10 10 9 9 11 11 11 12 14 15 16 16 16
8 8 8 8 6 7 8 7 8 9 10 11 12 12 12 12 12 10 11 12 13 13 16 17 17 17 15
10 10 9 8 9 10 8 10 10 11 12 12 12 13 13 13 15 12 12 11 10 13 17 18 19 21 21
10 9 10 10 11 11 11 12 12 13 13 13 14 14 15 15 16 13 12 14 14 18 19 19 18 20 20
13 12 11 12 12 13 13 14 14 14 15 15 16 16 16 14 14 13 12 12 14 17 19 19 19 18 19
15 15 14 14 15 14 15 16 16 15 15 16 17 17 18 19 16 16 15 11 13 13 18 20 23 21 21

GFSFLT2_850_spd_078.txt.gz
Wind_Speed
24 22 22 23 19 20 22 19 18 18 18 17 16 15 13 13 14 14 9 8 3 4 4 4 17 20 24
22 19 18 18 20 21 17 18 18 18 19 20 14 13 12 11 12 13 11 7 9 3 4 5 9 10 20
21 20 20 20 20 20 20 19 19 17 17 17 14 13 12 11 11 12 12 9 11 12 7 7 10 13 13
21 19 20 19 20 21 21 20 17 17 18 17 14 14 14 12 12 12 12 12 13 13 14 11 8 10 11
18 19 20 21 20 20 20 17 17 18 19 17 15 14 14 13 12 12 13 13 13 15 15 16 14 13 12
19 20 20 19 17 17 16 16 16 18 16 17 15 14 13 13 11 11 12 13 13 14 15 17 17 16 17
18 16 15 15 15 16 16 16 16 13 9 14 13 13 12 11 10 8 7 9 11 13 14 15 16 17 18
17 17 17 16 16 14 15 17 15 13 12 12 11 12 10 9 8 7 6 5 6 7 8 11 11 12 13
14 16 17 19 18 15 15 15 14 13 13 13 11 11 10 9 9 7 8 8 8 8 6 6 6 7 8
10 10 10 11 13 14 14 14 14 10 11 12 10 10 8 11 10 10 9 9 8 9 8 8 8 9 9
11 10 10 11 12 13 14 14 13 12 7 13 11 13 9 4 11 12 11 11 11 10 10 10 10 11 10
13 12 12 12 12 12 12 13 12 12 10 12 9 12 12 9 7 10 12 12 13 13 13 13 13 13 13
15 15 14 13 13 12 12 11 10 10 10 11 12 11 12 12 10 11 11 12 13 15 15 15 15 15 16
16 16 15 14 13 13 13 12 10 11 11 12 11 12 13 13 13 13 12 11 11 15 17 16 15 15 17
18 17 16 15 14 14 14 12 12 11 11 12 12 12 13 12 12 13 14 15 17 18 18 19 19 20 21
19 18 17 17 17 16 14 13 13 13 13 12 12 13 13 13 14 14 15 16 17 17 18 19 21 20 20
20 19 19 18 18 16 15 15 16 14 14 13 14 14 15 14 14 11 13 14 15 17 17 18 20 21 20

GFSFLT2_850_spd_084.txt.gz
Wind_Speed
23 23 22 24 23 22 19 17 15 16 16 16 14 14 14 19 17 15 14 14 13 10 10 11 14 13 22
20 21 22 25 20 17 17 15 14 15 16 15 15 14 16 20 16 12 12 10 11 9 4 6 8 8 16
22 21 22 19 17 18 19 18 17 15 16 17 15 14 17 18 13 12 11 10 10 9 5 6 7 3 8
22 20 20 18 18 20 20 19 17 17 16 16 15 15 16 17 13 13 12 11 11 10 11 7 5 6 9
23 19 20 20 19 18 17 17 17 17 16 16 15 16 18 14 13 12 12 11 11 11 13 13 8 7 10
21 22 19 18 18 17 17 17 17 16 15 16 16 17 14 12 11 11 11 10 10 11 13 16 15 12 11
20 19 19 17 18 18 17 15 14 12 10 13 14 12 11 11 10 9 9 8 9 11 12 14 17 17 14
17 19 20 18 17 15 11 12 13 14 14 15 14 10 10 10 9 8 7 6 6 9 11 12 13 15 16
17 18 19 19 16 17 17 17 17 16 17 16 12 11 10 9 8 7 7 7 5 6 6 9 11 12 13
20 19 21 21 18 18 17 18 17 13 15 16 14 9 8 11 10 9 8 8 8 7 7 7 7 8 8
20 17 16 18 16 19 20 22 19 17 9 15 14 14 10 3 12 11 10 9 9 9 9 8 7 7 7
19 17 16 15 15 15 17 16 13 16 15 11 13 12 14 11 5 11 11 11 11 10 10 9 9 8 8
21 19 16 16 13 16 19 16 16 16 16 15 12 12 13 13 10 8 9 11 12 11 12 12 11 10 10
20 19 19 17 15 17 16 15 15 16 16 15 14 14 11 11 12 11 9 7 9 11 11 12 11 11 11
23 24 21 18 18 18 17 16 17 17 17 16 14 13 13 14 14 12 13 13 12 12 11 10 10 10 10
24 25 22 21 21 21 20 19 20 19 18 15 15 15 14 14 13 12 14 14 13 12 12 12 11 11 11
26 25 23 21 23 22 20 20 22 21 18 16 16 15 14 14 11 12 15 14 14 13 13 13 11 10 11

GFSFLT2_850_spd_087.txt.gz
Wind_Speed
19 17 17 19 21 21 24 25 20 18 17 18 18 19 15 14 15 18 19 16 15 15 12 13 16 20 17
20 22 23 22 22 23 24 19 16 14 17 18 17 17 16 16 15 18 18 14 13 12 10 7 12 12 11
21 22 22 22 23 22 19 18 18 19 19 17 16 16 16 16 14 19 17 14 11 10 9 8 7 8 8
22 21 21 23 20 21 18 18 19 19 19 18 18 17 16 16 16 20 15 13 12 10 11 10 7 4 3
22 23 23 22 19 18 16 19 19 19 19 20 18 17 16 16 20 16 14 13 12 10 12 12 9 2 18
25 25 24 22 20 17 17 18 19 19 19 19 18 17 16 21 18 14 12 12 12 12 11 14 14 8 7
24 23 18 17 20 20 19 18 18 17 13 14 16 15 17 14 14 13 12 11 11 12 12 14 16 15 11
23 20 18 19 19 19 16 14 17 15 14 13 15 17 14 12 12 11 9 8 9 11 12 13 14 16 16
22 19 20 19 18 19 18 19 17 16 16 16 18 15 14 11 10 10 9 8 8 8 11 12 13 14 15
22 18 19 20 21 19 19 19 18 16 19 19 16 12 12 14 12 11 11 9 8 7 7 8 10 11 12
20 21 22 23 23 22 21 21 21 20 11 15 16 16 15 4 13 13 12 12 9 9 9 8 9 9 9
25 25 23 21 20 20 20 20 20 18 15 13 14 12 17 13 7 14 14 13 12 11 10 10 10 9 9
28 23 20 18 19 19 19 19 18 16 18 17 14 13 15 15 12 7 14 13 12 13 13 14 14 12 11
27 21 23 24 21 20 18 18 18 19 19 17 17 16 15 13 14 12 9 7 13 14 15 16 15 13 12
29 26 27 24 22 20 20 20 22 20 19 19 19 19 17 16 14 13 12 12 11 11 14 14 15 14 14
30 30 29 27 24 23 23 23 21 19 20 21 21 19 17 17 15 14 15 16 15 15 15 15 14 14 14
30 31 31 27 26 26 25 24 23 22 22 22 20 19 18 18 11 16 16 15 14 15 15 15 13 14 13